www.pogodaiklimat.ru

Погода и климат >> Архив погоды >> Казахстан >> Секисовка


ПОГОДА в Секисовке

  • Прогноз погоды в Секисовке
  • Монитор погоды в Секисовке
  • Климат города

АРХИВ ПОГОДЫ в Секисовке

Время (UTC), дата Ветер
(напр.,м/с)
 
Видим.   Явления Облачность Т
(С)
Тd
(С)
f
(%)
Тe
(С)
Тes
(С)
Комфортность P
(гПа)
Po
(гПа)
Тmin
(С)
Tmax
(С)
R
(мм)
R24
(мм)
S
(см)
15 23.04 штиль 0 6000 м н/о +6.9 +5.4 90 +6 +6 1020.6 968.3 +13.4
18 23.04 СЗ 3 15 км н/о +7.2 +3.3 76 +4 +4 1019.9 967.7 +13.4
21 23.04 ЮВ 4 19 км н/о +11.2 0.0 46 +9 +9 1018.7 967.2
00 24.04 ЮВ 3 19 км н/о +11.4 -0.1 45 +10 +10 1019.2 967.7
03 24.04 Ю 3 10 км н/о +9.9 +6.1 77 +8 +8 1020.8 969.0 <0.5
06 24.04 ЮВ 3 18 км н/о +12.7 +10.4 86 +11 +11 1020.6 969.4 0.8
12 26.04 штиль 0 20 км н/о +25.3 -3.1 15 +23 +23 комфорт 1015.8 966.8
15 26.04 штиль 0 15 км н/о +10.3 +4.7 68 +10 +10 1019.4 967.8 +25.3
18 26.04 СВ 1 10 км н/о +7.5 +2.0 68 +7 +7 1019.8 967.6 +25.3
21 26.04 штиль 0 14 км н/о +2.5 +2.5 100 +1 +1 1020.8 967.6
00 27.04 штиль 0 13 км н/о +1.7 +1.7 100 0 0 1021.3 968.0
03 27.04 С 2 17 км н/о +13.5 +4.4 54 +13 +13 1018.6 967.6 <0.5
06 27.04 ЮВ 4 20 км н/о +23.6 +0.7 22 +23 +23 комфорт 1016.0 966.7
09 27.04 Ю 3 20 км н/о +25.9 +2.6 22 +25 +25 комфорт 1014.5 965.7
12 27.04 Ю 3 20 км н/о +24.9 +2.4 23 +24 +24 комфорт 1014.5 965.5
15 27.04 ЮВ 3 19 км н/о +16.4 +3.8 43 +16 +16 1017.1 966.6 +26.0
18 27.04 Ю 1 19 км н/о +13.1 +5.3 59 +13 +13 1018.0 966.9 +26.0
21 27.04 С 3 19 км н/о +9.1 +4.3 72 +7 +7 1018.6 966.8
00 28.04 штиль 0 14 км н/о +5.0 +5.0 100 +4 +4 1020.3 967.7
03 28.04 С 1 12 км н/о +16.1 +6.0 51 +17 +17 1017.9 967.4 <0.5
06 28.04 В 2 20 км н/о +25.3 +5.5 28 +25 +25 комфорт 1014.7 965.8
09 28.04 ЮЗ 1 20 км н/о +26.2 +2.2 21 +25 +25 комфорт 1013.0 964.3
12 28.04 СЗ 2 17 км н/о +24.6 +4.4 27 +24 +24 комфорт 1013.1 964.2
15 28.04 СВ 1 9000 м н/о +18.2 +7.6 50 +19 +19 1016.3 966.2 +26.2
18 28.04 СЗ 2 11 км н/о +13.1 +7.8 70 +12 +12 1018.5 967.4 +26.2
21 28.04 СВ 1 12 км н/о +9.8 +6.2 78 +9 +9 1020.9 969.1
00 29.04 ЮЗ 1 9000 м н/о +8.6 +7.8 95 +8 +8 1023.6 971.5
03 29.04 СЗ 1 6000 м н/о +8.6 +8.3 98 +8 +8 1025.2 973.0 1
06 29.04 З 2 11 км н/о +9.8 +6.7 81 +8 +8 1025.6 973.6
09 29.04 Ю 2 15 км н/о +10.1 +6.8 80 +9 +9 1025.4 973.4
12 29.04 ЮВ 2 13 км н/о +9.8 +6.9 82 +8 +8 1025.0 973.0
15 29.04 Ю 2 11 км н/о +8.8 +8.0 95 +7 +7 1024.8 972.7 +10.2
18 29.04 ЮВ 2 10 км н/о +9.0 +7.9 93 +7 +7 1024.4 972.3 +10.2 0.4
21 29.04 Ю 1 14 км н/о +8.8 +7.3 90 +8 +8 1022.6 970.6
00 30.04 Ю 2 14 км н/о +7.3 +6.2 93 +5 +5 1022.5 970.2
03 30.04 Ю 4 18 км н/о +9.5 +4.9 73 +7 +7 1021.8 969.9 <0.5
06 30.04 ЮЗ 5 20 км н/о +13.0 +1.4 45 +11 +11 1020.1 968.9
09 30.04 Ю 4 19 км н/о +14.2 +1.8 43 +13 +13 1018.0 967.1

 

Местоположение метеостанции Секисовка (Восточно-Казахстанская область, Казахстан): широта 50.33 долгота 82.59 высота над уровнем моря 455 м.

В архиве по умолчанию представлена погода в Секисовке за последнюю неделю. Архивные данные за месяц целиком и за предыдущие месяцы, начиная с января 2011 года, Вы можете получить, выбрав интересующий диапазон дат из раскрывающегося списка и нажав кнопку "Ввод!".

Внимание! Время в таблицах - всемирное. Для получения местного времени необходимо прибавить поправку, которая в Секисовке равна 5 ч.

Смотрите также архив погоды в соседних городах и на ближайших метеорологических станциях:

Погода в Белоусовке (Восточно-Казахстанская область, Казахстан) (22 км)
Погода в Глубоком (Восточно-Казахстанская область, Казахстан) (28 км)
Погода в Оскемен Согре (Восточно-Казахстанская область, Казахстан) (37 км)
Погода в Усть-Каменогорске (Восточно-Казахстанская область, Казахстан) (40 км)
Погода в Таврии (Восточно-Казахстанская область, Казахстан) (42 км)
Погода в Первомайском (Восточно-Казахстанская область, Казахстан) (42 км)
Погода в Кайсенова (Восточно-Казахстанская область, Казахстан) (51 км)
Погода в Шемонаихе (Восточно-Казахстанская область, Казахстан) (58 км)
Погода в Риддере (Восточно-Казахстанская область, Казахстан) (68 км)
Погода в Змеиногорске (Алтайский край, Россия) (96 км)

Пояснения к столбцам:

Ветер - указаны скорость ветра в м/с - средняя за 10 мин, порывы в срок и между сроками (в фигурных скобках) и направление, откуда дует ветер: С - северный, СВ - северо-восточный, В - восточный, ЮВ - юго-восточный, Ю - южный, ЮЗ - юго-западный, З - западный, СЗ - северо-западный.
Видимость - горизонтальная дальность видимости в метрах или километрах. При видимости от 1 до 10 км при отсутствии осадков обычно наблюдается дымка, при ухудшении видимости до 1 км и менее - туман. В сухую погоду видимость может ухудшаться дымом, пылью или мглою.
Явления - указаны атмосферные явления, наблюдавшиеся в срок или в последний час перед сроком; фигурными скобками обозначены явления, наблюдавшиеся между сроками (за 1-3 часа до срока); квадратными скобками обозначены град или гололедные отложения с указанием их диаметра в мм.
Облачность - указаны через наклонную черту общая и нижняя облачность в баллах и высота нижней границы облаков в метрах; квадратными скобками обозначены формы облаков: Ci - перистые, Cs - перисто-слоистые, Cc - перисто-кучевые, Ac - высококучевые, As - высокослоистые, Sc - слоисто-кучевые, Ns - слоисто-дождевые, Cu - кучевые, Cb - кучево-дождевые. Подробнее классификацию облаков см. в Атласе облаков (PDF).
T - Температура воздуха - температура, измеренная на высоте 2 м над землей.
Td - Температура точки росы - температура, при понижении до которой содержащийся в воздухе водяной пар достигнет насыщения.
f - Относительная влажность воздуха - влажноcть воздуха, измеренная на высоте 2 м над землей.
Te - Эффективная температура - температура, которую ощущает одетый по сезону человек в тени. Характеристика душности погоды. При расчете учитывается влияние влажности воздуха и скорости ветра на теплоощущения человека.
Tes - Эффективная температура на солнце - температура, которую ощущает человек, с поправкой на солнечный нагрев. Характеристика знойности погоды. Зависит от высоты солнца над горизонтом, облачности и скорости ветра. Ночью, в пасмурную погоду, а также при ветре 12 м/с и более поправка равна нулю.
P - Атмосферное давление - приведенное к уровню моря атмосферное давление.
Po - Атмосферное давление - измеренное на уровне метеостанции атмосферное давление.
Tmin - Минимальная температура - минимум температуры воздуха на высоте 2 м над землей.
Tmax - Максимальная температура - максимум температуры воздуха на высоте 2 м над землей.
R - Количество осадков - Количество выпавших осадков за период времени, мм. При наведении курсора мыши на число - период времени, за который выпало указанное количество осадков.
R24 - Количество осадков - Количество выпавших осадков за 24 часа, мм.
S - Снежный покров - Высота снежного покрова, см. При наведении курсора мыши на число - состояние снежного покрова и степень покрытия местности в баллах.